マクノート彗星

C/2011 L2 ( McNaught )

English version
Home page
Updated on February 10, 2013

---------------------------------------------------------------------

・ プロフィール

発見日 2011年6月2日
発見光度 18.1等
発見者 Robert H. McNaught (Siding Spring)

・ 写真集

・ 軌道要素

Epoch 2011 Nov. 15.0 TT = JDT 2455880.5
T 2011 Nov. 1.27419 TT                                  MPC
q   1.9434562            (2000.0)            P               Q
z  -0.0009328      Peri.  257.02897     -0.03188402     -0.68527780
 +/-0.0000047      Node   131.34835     +0.07562088     +0.72421314
e   1.0018128      Incl.  104.25770     -0.99662676     +0.07687436
From 52 observations 2011 June 2-2012 Jan. 28, mean residual 0".5.

・ 星図

・ 光度変化

        m1 = 13.0 + 5 logΔ + 10.0 log r(t + 200)

---------------------------------------------------------------------

軌道要素はM.P.E.C. 2012-D09に掲載されたものです。
星図はステラナビゲータ Ver.8 (アストロアーツ) で作成したものです。
光度グラフはComet for Windowsで作成したものです。

---------------------------------------------------------------------

Copyright(C) Seiichi Yoshida (comet@aerith.net). All rights reserved.